Miscellaneous Local Product
Issued by NWS North Platte, NE

Home | Current Version | Previous Version | Graphics & Text | Print | Product List | Glossary On
Versions: 1 2 3 4 5 6 7 8 9 10 11 12 13 14 15 16 17 18 19 20 21 22 23 24 25 26 27 28 29 30 31 32 33 34 35 36 37 38 39 40 41 42 43 44 45 46 47 48 49 50
000
AXUS43 KLBF 270310
MISLBF


WESTERN AND NORTH CENTRAL NEBRASKA HOURLY WEATHER ROUNDUP
NATIONAL WEATHER SERVICE NORTH PLATTE NE
900 PM CST THU FEB 26 2015

***STATIONS NOT REPORTING VARIABLES SUCH AS SKY/WEATHER OR
PRESSURE ARE PROVIDED BY THE NEBRASKA DEPARTMENT OF
ROADS...RAWS...AND APRS NETWORKS...AND ARE NOT UNDER
NATIONAL WEATHER SERVICE QUALITY CONTROL***

...OBSERVATIONS IN AND NEAR THE EASTERN PANHANDLE OF NEBRASKA...

CITY           SKY/WX    TMP DP  RH WIND       PRES   REMARKS
PINE RIDGE     CLEAR      0  -6  76 E6        30.38S WCI -12
CHADRON        CLEAR     -2  -8  76 CALM      30.38S
ALLIANCE       CLEAR      3  -2  79 NE6       30.30F WCI  -8
SIDNEY         MOCLDY    10   0  63 E8        30.27S WCI  -2
WHITECLAY        N/A     30  19  64 CALM        N/A
CRESCENT LAKE    N/A      6  -4  63 NE6         N/A  WCI  -4
LISCO            N/A     15   0  51 N13         N/A  WCI   1
BIG SPRINGS      N/A     13   2  62 NE3         N/A
LEWELLEN         N/A      6  -5  60 CALM        N/A
$$

...OBSERVATIONS IN NORTH CENTRAL NEBRASKA...

CITY           SKY/WX    TMP DP  RH WIND       PRES   REMARKS
VALENTINE      CLEAR      1  -4  79 CALM      30.44F
THEDFORD       CLEAR      5  -3  70 CALM      30.42S
AINSWORTH      CLEAR      4  -3  71 CALM      30.44S
O`NEILL        CLEAR      1  -5  75 N6        30.49R WCI -10
ORD            CLEAR      4  -6  63 NW5       30.49R WCI  -5
BROKEN BOW     CLEAR      1  -8  66 N7        30.44S WCI -12
BROWNLEE         N/A      0  -7  73 N5          N/A  WCI -10
SPRINGVIEW       N/A      1  -6  73 CALM        N/A
BREWSTER         N/A      8   1  72 CALM        N/A
ROSE             N/A      9   4  80 CALM        N/A
NEWPORT          N/A     30  23  74 NW5         N/A  WCI  25
SARGENT          N/A      6  -2  68 CALM        N/A
COMSTOCK         N/A      6  -4  62 N6          N/A  WCI  -4
CHAMBERS         N/A      2 -14  46 CALM        N/A
EWING            N/A      2  -4  73 CALM        N/A
$$

...OBSERVATIONS IN SOUTHWEST NEBRASKA AND FAR NORTHEAST COLORADO...

CITY           SKY/WX    TMP DP  RH WIND       PRES   REMARKS
WRAY           LGT SNOW  18  13  79 E6        30.32S WCI  10
IMPERIAL         N/A      9  -1  64 NE6       30.36R WCI  -1
OGALLALA       CLEAR     10   1  65 NE7       30.36S WCI  -1
NORTH PLATTE   CLEAR      6  -6  57 NE6       30.42R WCI  -4
MCCOOK         CLEAR     11  -3  53 NE7       30.42R WCI   0
LEXINGTON      CLEAR      7  -5  57 NE7       30.45R WCI  -5
PAXTON           N/A      8  -4  58 N3          N/A
BRADY            N/A      6  -6  57 CALM        N/A
GOTHENBURG       N/A      6  -7  55 N3          N/A
CALLAWAY         N/A      5  -4  65 NE7         N/A  WCI  -7
$$

...NORTH PLATTE AREA...

CITY           SKY/WX    TMP DP  RH WIND       PRES   REMARKS
AIRPORT        CLEAR      6  -6  57 NE6       30.42R WCI  -4
DOWNTOWN         N/A      7  -5  56 NE3         N/A
$$

...SOME WEATHER OBSERVATIONS FROM AROUND THE REGION...

CITY           SKY/WX    TMP DP  RH WIND       PRES   REMARKS
DENVER         LGT SNOW  12   9  87 E13       30.12S FOG     WCI  -3
LARAMIE        CLOUDY     4  -3  73 SE15      29.95F WCI -14
CHEYENNE       LGT SNOW   8   3  80 SE10      30.08F WCI  -6
SCOTTSBLUFF    CLOUDY     9   1  70 E10       30.30S WCI  -5
RAPID CITY     CLEAR     -4 -11  72 NW8       30.38F WCI -19
PIERRE         CLEAR      0  -7  72 NE6       30.52S WCI -12
WINNER         FAIR       4  -8  57 CALM      30.50S
SIOUX FALLS    CLEAR     -4 -10  75 NW5       30.52R WCI -15
OMAHA          CLEAR      3  -2  79 N5        30.57R WCI  -6
GRAND ISLAND   CLEAR      4  -3  73 NE3       30.52R
KANSAS CITY    FAIR       8  -2  63 N8        30.55R WCI  -4
WICHITA        PTCLDY    19  -2  39 NE13      30.49R WCI   6
HAYS           CLEAR     10  -8  44 NE7       30.46R WCI   0
LIBERAL        CLOUDY    21   3  45 E9        30.38R WCI  11
GOODLAND       CLOUDY    17   5  59 E8        30.32S WCI   7
$$



USA.gov is the U.S. government's official web portal to all federal, state and local government web resources and services.